车型导购> 车型导购
车型导购
  1. 现代KONA 64kWh领衔 电动沙龙国际网站实际驾驶续航里程前十强出炉 2018-11-16 14:52:09
  2. 2018年广州车展必看十大新车 2018-11-14 15:27:33
  3. 高科技也要选最潮流的 风光ix5有型有脑 2018-11-13 09:11:53
  4. 途岳R-Line领衔 上汽大众大众品牌2018广州车展前瞻 2018-11-09 16:55:32
  5. 实拍上汽大众T-Cross:大众最新SUV全球首秀 2018-10-30 14:54:22
  6. 实拍全新宝骏RS-5:延续激进的设计 2018-10-23 18:19:51
  7. 实拍新款奔腾X40:内饰得到明显升级 2018-10-11 16:39:17
  8. 新一代奥迪Q3解析:受众人群进一步扩大 2018-10-10 10:28:00
  9. 东风启辰T60广州品鉴:有智慧的SUV 2018-09-22 17:23:59
  10. 奥迪e-tron量产版新车解析 2018-09-20 15:20:11
  11. 实拍新款奔腾B50 造型微调/功能配置增加 2018-09-18 11:22:05
  12. 抢滩“金九”一大波新车开闸而来 2018-09-07 10:39:18
  13. 捷豹I-PACE领衔 成都车展六款电动车推荐 2018-09-05 11:42:58
  14. 广汽丰田ix4领衔 2018成都车展热门新车盘点 2018-09-04 09:40:14
  15. 比亚迪秦Pro静态解析:龙颜外形与科技加持 2018-08-30 14:52:28
  16. 雷凌双擎领衔 5款节能车了解一下 2018-08-24 10:43:06
  17. 2018款福特翼搏领衔 10款跨界SUV导购 2018-08-22 11:23:24
  18. 实拍全新领克03 宠爱至极or毫无兴趣? 2018-08-22 11:23:24
  19. 昂科威&途观L对比导购 2018-08-21 14:53:25
  20. 行走的艺术家 品鉴东风雪铁龙云逸C4 AIRCROSS 2018-08-10 17:47:48
  21. 广汽丰田C-HR领衔 8月SUV就看它们 2018-08-09 09:43:31
  22. 讴歌CDX SPORT HYBRID领衔 五款节能车推荐 2018-08-06 10:00:15
  23. 30万选什么车?广汽Acura TLX-L PK雷克萨斯ES 2018-07-30 14:16:08
  24. 实拍WEY VV6 配置抢眼/首搭四驱系统 2018-07-27 14:44:04
  25. 五款智能互联 自主品牌SUV横评 2018-07-26 15:17:05
  26. 7月沪牌平均成交价88380元 名爵6新能源导购推荐 2018-07-25 21:45:33
  27. 对比导购:宝来和朗逸究竟谁更值? 2018-07-25 10:45:30
  28. 第十代思域领衔 1.5T合资轿车推荐 2018-07-24 14:24:28
  29. 哈弗H6领衔 上半年最火的SUV推荐 2018-07-24 14:24:28
  30. 朗逸领衔 上半年高销量“网红”轿车导购 2018-07-23 10:18:59
  31. 奥迪A6L 40 e-tron领衔 五款电动豪华车横评 2018-07-23 10:18:59
  32. 最快突破国产40万销量的合资SUV品牌 藏着怎样的高科技? 2018-07-18 17:55:24
  33. 实拍吉利全新缤瑞:内饰首次亮相 2018-07-18 10:29:12
  34. 北汽EC系列领衔 2018年全球最畅销新能源车排行榜出炉 2018-07-18 10:29:12
  35. 【导购推荐】10.99万起入手德系品质SUV:斯柯达柯米克 2018-07-17 17:38:49
  36. 品鉴C-HR:除了出众的颜值,C-HR还凭什么来占领“C”位 2018-07-16 18:19:02
  37. 六万差价谁更厚道? DS7帕西版对比宝马X1时尚型 2018-07-10 21:28:48
  38. 图解宋DM智联四驱尊荣型:居家撒野两不误 2018-07-06 16:48:51
  39. 奔驰GLC领衔 5款主流豪华品牌SUV推荐 2018-07-06 15:48:45
  40. [导购]10万元想买SUV? 推荐时尚高性价车型 2018-07-05 14:34:33
1  2  3  4  5  6  7  8  9  10  


返回顶部
salon36